IRIDIUM 106 1 41917U 17003A 26073.55914634 .00000096 00000+0 27259-4 0 9991 2 41917 86.3970 128.1273 0002193 106.5026 253.6411 14.34217331479647 IRIDIUM 103 1 41918U 17003B 26073.61622967 .00000124 00000+0 37116-4 0 9999 2 41918 86.3971 128.0036 0001980 89.0681 271.0741 14.34217681479671 IRIDIUM 109 1 41919U 17003C 26073.55280430 -.00000020 00000+0 -14359-4 0 9999 2 41919 86.3972 128.0875 0002086 95.2254 264.9180 14.34217266479630 IRIDIUM 102 1 41920U 17003D 26073.59086009 .00000025 00000+0 18235-5 0 9992 2 41920 86.3969 127.9976 0002287 95.7518 264.3938 14.34217609479725 IRIDIUM 105 1 41921U 17003E 26073.55599768 .00000311 00000+0 10363-3 0 9990 2 41921 86.3915 96.4554 0002099 88.0870 272.0566 14.34400419481578 IRIDIUM 104 1 41922U 17003F 26073.60354506 .00000055 00000+0 12656-4 0 9999 2 41922 86.3970 128.0335 0002225 86.7224 273.4226 14.34217826479717 IRIDIUM 114 1 41923U 17003G 26073.60988581 .00000235 00000+0 76832-4 0 9992 2 41923 86.3969 128.0142 0002075 90.5107 269.6326 14.34216910479696 IRIDIUM 108 1 41924U 17003H 26073.56840804 .00000077 00000+0 20498-4 0 9994 2 41924 86.3908 96.3403 0002379 93.7414 266.4053 14.34217517481543 IRIDIUM 112 1 41925U 17003J 26073.59720264 .00000075 00000+0 19813-4 0 9992 2 41925 86.3966 127.8662 0002245 91.8166 268.3287 14.34217765479711 IRIDIUM 111 1 41926U 17003K 26073.58451686 -.00000011 00000+0 -11153-4 0 9992 2 41926 86.3970 127.9395 0002008 94.9597 265.1828 14.34217412479692 IRIDIUM 113 1 42803U 17039A 26073.49472450 .00001341 00000+0 47180-3 0 9991 2 42803 86.4031 1.7452 0002251 77.9139 282.2309 14.34214237457616 IRIDIUM 123 1 42804U 17039B 26073.39665450 .00000038 00000+0 65194-5 0 9994 2 42804 86.3983 33.2368 0002012 85.4811 274.6615 14.34217811456361 IRIDIUM 120 1 42805U 17039C 26073.34883336 .00000020 00000+0 15327-6 0 9990 2 42805 86.4019 1.6005 0002161 89.2525 270.8918 14.34217731457589 IRIDIUM 115 1 42806U 17039D 26073.55130730 .00000444 00000+0 12587-3 0 9999 2 42806 86.4556 1.6320 0001891 91.7164 268.4253 14.43281620460613 IRIDIUM 118 1 42807U 17039E 26073.35859909 .00000164 00000+0 51341-4 0 9995 2 42807 86.3983 33.2508 0002192 83.8735 276.2710 14.34218075456352 IRIDIUM 117 1 42808U 17039F 26073.58693198 -.00000028 00000+0 -17214-4 0 9999 2 42808 86.3980 33.1142 0001969 86.3352 273.8069 14.34217395456418 IRIDIUM 126 1 42809U 17039G 26073.40299691 -.00000005 00000+0 -88303-5 0 9994 2 42809 86.3983 33.2408 0001976 82.2290 277.9130 14.34217565456369 IRIDIUM 124 1 42810U 17039H 26073.62407674 .00000434 00000+0 12295-3 0 9991 2 42810 86.4527 329.9155 0002064 85.7117 274.4320 14.43278996461471 IRIDIUM 128 1 42811U 17039J 26073.46350358 .00000044 00000+0 85106-5 0 9990 2 42811 86.3918 64.7459 0002163 94.5799 265.5644 14.34217631456406 IRIDIUM 121 1 42812U 17039K 26073.35225690 -.00000038 00000+0 -20791-4 0 9992 2 42812 86.3984 33.2890 0002154 88.0944 272.0498 14.34217245456232 IRIDIUM 133 1 42955U 17061A 26073.49521638 .00000077 00000+0 20367-4 0 9991 2 42955 86.3920 64.8481 0002173 90.2742 269.8703 14.34217904441204 IRIDIUM 100 1 42956U 17061B 26073.48887355 .00000040 00000+0 73250-5 0 9992 2 42956 86.3918 64.7716 0002139 89.1970 270.9471 14.34217688441208 IRIDIUM 122 1 42957U 17061C 26073.45715902 .00000044 00000+0 87320-5 0 9995 2 42957 86.3915 64.7847 0002069 87.9993 272.1440 14.34217590441206 IRIDIUM 129 1 42958U 17061D 26073.48253045 .00000080 00000+0 21605-4 0 9997 2 42958 86.3919 64.8404 0002411 82.7132 277.4337 14.34218072441221 IRIDIUM 119 1 42959U 17061E 26073.52058056 .00000196 00000+0 62984-4 0 9991 2 42959 86.3919 64.8196 0002142 84.9325 275.2115 14.34219998441249 IRIDIUM 107 1 42960U 17061F 26073.46984454 .00000011 00000+0 -31749-5 0 9999 2 42960 86.3919 64.8619 0001745 90.8246 269.3149 14.34217538441246 IRIDIUM 132 1 42961U 17061G 26073.54595624 .00000079 00000+0 21242-4 0 9995 2 42961 86.3919 64.8099 0002134 90.5328 269.6112 14.34217921441250 IRIDIUM 136 1 42962U 17061H 26073.50790094 .00000010 00000+0 -35790-5 0 9990 2 42962 86.3922 64.8324 0002001 86.6589 273.4836 14.34217515441260 IRIDIUM 139 1 42963U 17061J 26073.44447553 .00000035 00000+0 53028-5 0 9993 2 42963 86.3922 64.9192 0002139 90.7702 269.3739 14.34217772441261 IRIDIUM 125 1 42964U 17061K 26073.50155710 .00000030 00000+0 38212-5 0 9995 2 42964 86.3925 64.9548 0001729 77.6511 282.4878 14.34217724441285 IRIDIUM 135 1 43070U 17083A 26073.33614470 .00000081 00000+0 21725-4 0 9998 2 43070 86.4028 1.6542 0002191 85.2174 274.9272 14.34216278430550 IRIDIUM 138 1 43071U 17083B 26073.50105450 .00000151 00000+0 46786-4 0 9993 2 43071 86.4042 1.2666 0002130 73.8736 286.2695 14.34218599430564 IRIDIUM 116 1 43072U 17083C 26073.53911102 .00000221 00000+0 71936-4 0 9999 2 43072 86.4025 1.5567 0002204 92.6276 267.5172 14.34218571430606 IRIDIUM 130 1 43073U 17083D 26073.50739689 .00000063 00000+0 15521-4 0 9997 2 43073 86.4035 1.8357 0001934 91.8288 268.3129 14.34218198430540 IRIDIUM 151 1 43074U 17083E 26073.55179666 -.00000016 00000+0 -12754-4 0 9991 2 43074 86.4021 1.6070 0002027 85.1975 274.9452 14.34217319430578 IRIDIUM 134 1 43075U 17083F 26073.52008285 .00000071 00000+0 18376-4 0 9992 2 43075 86.4028 1.6268 0002030 87.3609 272.7819 14.34218012430537 IRIDIUM 137 1 43076U 17083G 26073.32346366 -.00000006 00000+0 -93256-5 0 9997 2 43076 86.4027 1.8000 0002371 91.7766 268.3702 14.34217530430574 IRIDIUM 141 1 43077U 17083H 26073.52642562 .00000210 00000+0 68063-4 0 9999 2 43077 86.4024 1.5512 0002143 83.1240 277.0199 14.34218841430603 IRIDIUM 153 1 43078U 17083J 26073.61813849 .00000202 00000+0 64927-4 0 9994 2 43078 86.4004 330.0258 0001976 77.9392 282.2025 14.34216842431720 IRIDIUM 131 1 43079U 17083K 26073.51373966 .00000168 00000+0 53072-4 0 9995 2 43079 86.4030 1.7356 0002231 83.0846 277.0604 14.34218836430536 IRIDIUM 144 1 43249U 18030A 26073.62448398 .00000060 00000+0 14498-4 0 9991 2 43249 86.4005 329.9544 0002048 87.8813 272.2617 14.34218068416580 IRIDIUM 149 1 43250U 18030B 26073.42152167 .00000287 00000+0 95275-4 0 9990 2 43250 86.4001 330.0075 0002128 84.5057 275.6381 14.34217936416570 IRIDIUM 157 1 43251U 18030C 26073.44054879 .00000104 00000+0 30240-4 0 9993 2 43251 86.4006 330.0505 0002099 83.9530 276.1905 14.34217936416556 IRIDIUM 140 1 43252U 18030D 26073.45957643 .00000023 00000+0 13129-5 0 9994 2 43252 86.4000 330.0552 0002002 86.5077 273.6348 14.34217708416619 IRIDIUM 145 1 43253U 18030E 26073.65619233 .00000266 00000+0 88101-4 0 9997 2 43253 86.4003 329.9454 0002085 95.0759 265.0675 14.34216754416577 IRIDIUM 146 1 43254U 18030F 26073.42786324 .00000086 00000+0 23622-4 0 9996 2 43254 86.4004 330.0535 0002172 89.2197 270.9248 14.34218166416558 IRIDIUM 148 1 43255U 18030G 26073.46591932 -.00000009 00000+0 -10271-4 0 9993 2 43255 86.3998 330.0789 0002019 85.8317 274.3110 14.34217468416591 IRIDIUM 142 1 43256U 18030H 26073.43420647 .00000059 00000+0 14035-4 0 9990 2 43256 86.4002 329.9850 0002089 93.6484 266.4951 14.34217679416559 IRIDIUM 150 1 43257U 18030J 26073.47226059 .00000249 00000+0 81886-4 0 9995 2 43257 86.4004 330.0823 0002051 85.9031 274.2399 14.34217563416584 IRIDIUM 143 1 43258U 18030K 26073.66253983 .00000009 00000+0 -37873-5 0 9996 2 43258 86.4002 330.0913 0001976 91.2852 268.8570 14.34217525416543 IRIDIUM 161 1 43478U 18047C 26073.60174564 .00000359 00000+0 10080-3 0 9995 2 43478 86.4492 128.0306 0002455 87.3193 272.8289 14.43277440411491 IRIDIUM 152 1 43479U 18047D 26073.63525789 .00000134 00000+0 40711-4 0 9994 2 43479 86.3965 127.8769 0002220 91.3229 268.8221 14.34217576408931 IRIDIUM 147 1 43480U 18047E 26073.57183194 .00000165 00000+0 51899-4 0 9992 2 43480 86.3966 127.9069 0002293 98.1579 261.9877 14.34217898408928 IRIDIUM 110 1 43481U 18047F 26073.57817515 -.00000004 00000+0 -84474-5 0 9994 2 43481 86.3970 127.9933 0002284 84.9527 275.1930 14.34217421408918 IRIDIUM 162 1 43482U 18047G 26073.59544068 .00000367 00000+0 10319-3 0 9992 2 43482 86.4488 127.9254 0002146 95.0298 265.1148 14.43278740411482 IRIDIUM 160 1 43569U 18061A 26073.59377913 .00000075 00000+0 19554-4 0 9994 2 43569 86.3911 96.3633 0002341 90.4333 269.7132 14.34217788399814 IRIDIUM 166 1 43570U 18061B 26073.54938068 .00000058 00000+0 13779-4 0 9999 2 43570 86.3910 96.3337 0002256 95.1761 264.9692 14.34217733399838 IRIDIUM 158 1 43571U 18061C 26073.58743653 .00000071 00000+0 18152-4 0 9993 2 43571 86.3909 96.3278 0002082 90.2470 269.8965 14.34217488399802 IRIDIUM 165 1 43572U 18061D 26073.61280644 .00000056 00000+0 12964-4 0 9992 2 43572 86.3911 96.3617 0002247 95.6604 264.4848 14.34217603399837 IRIDIUM 155 1 43573U 18061E 26073.57475081 .00000066 00000+0 16595-4 0 9994 2 43573 86.3908 96.2513 0002100 94.2882 265.8554 14.34217777399795 IRIDIUM 154 1 43574U 18061F 26073.55572378 -.00000110 00000+0 -46438-4 0 9991 2 43574 86.3914 96.3881 0002185 96.4808 263.6637 14.34217264399842 IRIDIUM 163 1 43575U 18061G 26073.60646333 .00000012 00000+0 -27303-5 0 9992 2 43575 86.3910 96.2852 0002067 91.0100 269.1333 14.34217464399825 IRIDIUM 156 1 43576U 18061H 26073.58109316 .00000052 00000+0 11645-4 0 9999 2 43576 86.3909 96.3031 0002081 95.2189 264.9245 14.34217612399812 IRIDIUM 164 1 43577U 18061J 26073.56206408 .00000110 00000+0 32189-4 0 9999 2 43577 86.3914 96.3501 0002401 94.5167 265.6303 14.34218613399854 IRIDIUM 159 1 43578U 18061K 26073.60012172 -.00000025 00000+0 -16092-4 0 9990 2 43578 86.3909 96.2724 0002241 89.6880 270.4573 14.34217146399824 IRIDIUM 180 1 43922U 19002A 26073.39031203 .00000089 00000+0 24825-4 0 9992 2 43922 86.3981 33.2002 0002244 84.4544 275.6908 14.34218031375401 IRIDIUM 176 1 43923U 19002B 26073.34405130 .00000589 00000+0 89535-4 0 9996 2 43923 86.6103 33.1762 0002514 90.6414 269.5091 14.72249541385293 IRIDIUM 168 1 43924U 19002C 26073.59327479 .00000313 00000+0 10471-3 0 9990 2 43924 86.3984 33.1898 0002145 86.4213 273.7228 14.34219573375410 IRIDIUM 173 1 43925U 19002D 26073.58058904 .00000097 00000+0 27595-4 0 9999 2 43925 86.3980 33.0881 0002035 84.3396 275.8031 14.34218084375393 IRIDIUM 169 1 43926U 19002E 26073.51728247 .00000114 00000+0 30852-4 0 9997 2 43926 86.4176 64.7657 0001502 88.0581 272.0789 14.38606469376616 IRIDIUM 172 1 43927U 19002F 26073.36493974 .00000181 00000+0 57667-4 0 9994 2 43927 86.3980 33.1855 0002298 84.2096 275.9362 14.34218531375377 IRIDIUM 175 1 43928U 19002G 26073.20357557 .00001028 00000+0 15912-3 0 9991 2 43928 86.1535 330.5199 0002774 103.0388 257.1139 14.72239516385261 IRIDIUM 171 1 43929U 19002H 26073.34591377 .00000016 00000+0 -13275-5 0 9996 2 43929 86.3988 33.4898 0002063 92.0050 268.1382 14.34217632375360 IRIDIUM 170 1 43930U 19002J 26073.35023438 .00001143 00000+0 17736-3 0 9992 2 43930 86.6101 33.1764 0002629 87.3401 272.8117 14.72246897385306 IRIDIUM 167 1 43931U 19002K 26073.33957095 -.00000086 00000+0 -37864-4 0 9998 2 43931 86.3981 33.2183 0001906 95.0129 265.1284 14.34216995375365 IRIDIUM 181 1 56726U 23068S 26073.54116419 .00000209 00000+0 56219-4 0 9991 2 56726 86.4448 96.3691 0002621 92.1922 267.9579 14.43309156148781 IRIDIUM 177 1 56727U 23068T 26073.34235051 .00001633 00000+0 21143-3 0 9993 2 56727 86.2009 13.8152 0002205 75.7764 284.3701 14.80223761152332 IRIDIUM 174 1 56728U 23068U 26073.40582679 .00001190 00000+0 18476-3 0 9995 2 56728 86.6109 33.2918 0002578 80.1164 280.0344 14.72251493152072 IRIDIUM 178 1 56729U 23068V 26073.46663222 .00000653 00000+0 82554-4 0 9998 2 56729 86.6491 64.9387 0002560 98.6230 261.5282 14.80230788152356 IRIDIUM 179 1 56730U 23068W 26073.52885584 .00001305 00000+0 16827-3 0 9998 2 56730 86.6728 73.6177 0002410 95.3285 264.8211 14.80228472152369